Zurück zum Katalog

KL-ALPHA A

AktivWissenschaftPO
NORAD 44785·PAYLOAD·🇩🇪 Germany

Gestartet Nov 17, 2019 von Jiuquan Satellite Launch Center

Loading…

Nächste Überflüge (nächste 24 Stunden)

TLE

AktuellSource: Space-Track

Epoche: Sep 14, 2026, 14:59 UTC

1 44785U 19077A   26257.62483084 -.00000044  00000-0 -79942-4 0  9994
2 44785  88.9306 212.7923 0009651 199.0005 161.0790 13.56049246337855

Verfolge KL-ALPHA A in Echtzeit mit AllMySat

Download on the App Store